Location: Unspecified
(48.8656°N, 0.0000°E)
Time: 15:20:30
(UTC+00:00)

Vanguard 1 Rocket - Pass Details

Date: 24 June 2019
Orbit: 652 x 4224 km, 34.3° (Epoch: 21 August)

Event Time Altitude Azimuth Distance (km) Brightness Sun altitude
Rises 12:38:43 0° 176° (S) 8,421 12.7 63.6°
Reaches altitude 10° 12:54:57 10° 143° (SE) 6,716 12.1 62.5°
Maximum altitude 12:56:41 10° 138° (SE) 6,584 12.0 62.4°
Drops below altitude 10° 12:58:21 10° 133° (SE) 6,472 12.0 62.3°
Sets 13:10:19 0° 97° (E) 6,360 11.6 61.2°
